カタログに戻る

STARLINK-33848

運用中通信VLEO
NORAD 63705·PAYLOAD·🇺🇸 United States

打ち上げ Apr 28, 2025 から Vandenberg Space Force Base

Loading…

次のパス (今後24時間)

TLE

最新Source: CelesTrak SupGP

元期: Sep 15, 2026, 03:20 UTC

1 63705C 25087J   26258.13937500 -.00020181  00000+0 -59629-3 0  2589
2 63705  53.1600  58.8788 0001204  88.7716 325.7840 15.34398304    16

AllMySatでSTARLINK-33848をリアルタイム追跡

Download on the App Store